Location: Kunchanapalle
(16.4623°N, 80.6176°E)
Time: 18:15:54
(UTC+00:00)

CSL-04 Rocket - Pass Details

Date: 13 August 2020
Orbit: 807 x 859 km, 98.9° (Epoch: 18 September)

Event Time Altitude Azimuth Distance (km) Brightness Sun altitude
Rises 13:21:12 0° 150° (SSE) 3,335 6.4 -4.9°
Reaches altitude 10° 13:23:41 10° 142° (SE) 2,398 5.6 -5.5°
Maximum altitude 13:28:34 39° 75° (ENE) 1,195 4.1 -6.6°
Drops below altitude 10° 13:33:26 10° 7° (N) 2,385 6.2 -7.8°
Sets 13:35:53 0° 360° (N) 3,315 7.0 -8.3°
